| time (UTC) | temp C | wind direction | speed KPH | gust KPH | rain 1hr cm | rain 24hr cm | rain mn cm | humidity % | barometer mb |
| 20260507155647 | 12 | 122 | 0.0 | 4.8 | 0.00 | 0.10 | 0.10 | 71 | 1015.4 |
| 20260507154647 | 12 | 53 | 1.6 | 6.4 | 0.00 | 0.10 | 0.10 | 71 | 1015.3 |
| 20260507153648 | 13 | 46 | 0.0 | 8.0 | 0.00 | 0.10 | 0.10 | 67 | 1015.4 |
| 20260507152648 | 15 | 338 | 1.6 | 9.7 | 0.00 | 0.10 | 0.10 | 68 | 1015.3 |
| 20260507152415 | 15 | 285 | 1.6 | 4.8 | 0.00 | 0.10 | 0.10 | 60 | 1015.1 |
| 20260507151835 | 15 | 285 | 1.6 | 4.8 | 0.00 | 0.10 | 0.10 | 60 | 1015.1 |
| 20260507151648 | 15 | 285 | 1.6 | 4.8 | 0.00 | 0.10 | 0.10 | 60 | 1015.1 |
| 20260507150648 | 14 | 281 | 0.0 | 3.2 | 0.00 | 0.10 | 0.10 | 69 | 1015.1 |
| 20260507145648 | 13 | 37 | 0.0 | 6.4 | 0.00 | 0.10 | 0.10 | 74 | 1015.1 |
| 20260507144648 | 11 | 26 | 3.2 | 11.3 | 0.00 | 0.10 | 0.10 | 79 | 1015.3 |
| 20260507143648 | 11 | 358 | 3.2 | 11.3 | 0.00 | 0.15 | 0.10 | 69 | 1015.1 |
| 20260507142648 | 13 | 285 | 0.0 | 3.2 | 0.00 | 0.15 | 0.10 | 66 | 1015.3 |
| 20260507141648 | 15 | 313 | 1.6 | 8.0 | 0.00 | 0.15 | 0.10 | 72 | 1015.1 |
| 20260507140648 | 11 | 310 | 1.6 | 8.0 | 0.00 | 0.15 | 0.10 | 76 | 1015.1 |
| 20260507135648 | 10 | 324 | 3.2 | 9.7 | 0.00 | 0.15 | 0.10 | 79 | 1015.3 |
| 20260507134648 | 11 | 305 | 1.6 | 11.3 | 0.00 | 0.15 | 0.10 | 75 | 1015.1 |
| 20260507133648 | 13 | 326 | 3.2 | 6.4 | 0.00 | 0.15 | 0.10 | 67 | 1015.3 |
| 20260507132648 | 16 | 57 | 0.0 | 8.0 | 0.00 | 0.15 | 0.10 | 63 | 1015.1 |
| 20260507131648 | 15 | 101 | 4.8 | 6.4 | 0.00 | 0.15 | 0.10 | 68 | 1015.1 |
| 20260507130648 | 14 | 71 | 0.0 | 4.8 | 0.00 | 0.15 | 0.10 | 69 | 1015.3 |
| 20260507125648 | 13 | 9 | 0.0 | 4.8 | 0.00 | 0.15 | 0.10 | 75 | 1015.1 |
| 20260507124648 | 11 | 323 | 3.2 | 8.0 | 0.00 | 0.15 | 0.10 | 75 | 1015.0 |
| 20260507123648 | 12 | 317 | 11.3 | 11.3 | 0.00 | 0.15 | 0.10 | 76 | 1015.0 |
| 20260507122648 | 11 | 319 | 0.0 | 8.0 | 0.00 | 0.15 | 0.10 | 82 | 1015.0 |
| 20260507121648 | 10 | 322 | 4.8 | 8.0 | 0.00 | 0.15 | 0.10 | 79 | 1014.8 |
| 20260507120648 | 9 | 327 | 1.6 | 12.9 | 0.00 | 0.15 | 0.10 | 86 | 1014.9 |
| 20260507115648 | 9 | 340 | 6.4 | 12.9 | 0.00 | 0.15 | 0.10 | 85 | 1014.8 |
| 20260507114648 | 10 | 344 | 4.8 | 6.4 | 0.00 | 0.15 | 0.10 | 85 | 1014.9 |
| 20260507113648 | 10 | 293 | 6.4 | 14.5 | 0.00 | 0.15 | 0.10 | 83 | 1014.8 |
| 20260507112648 | 10 | 298 | 6.4 | 11.3 | 0.00 | 0.15 | 0.10 | 82 | 1014.8 |
| 20260507111648 | 10 | 289 | 9.7 | 17.7 | 0.00 | 0.15 | 0.10 | 80 | 1014.8 |
| 20260507110648 | 10 | 327 | 6.4 | 12.9 | 0.00 | 0.15 | 0.10 | 78 | 1014.9 |
| 20260507105648 | 11 | 333 | 1.6 | 11.3 | 0.00 | 0.15 | 0.10 | 75 | 1014.9 |
| 20260507104648 | 11 | 298 | 1.6 | 9.7 | 0.00 | 0.15 | 0.10 | 77 | 1015.0 |
| 20260507103648 | 11 | 322 | 9.7 | 11.3 | 0.00 | 0.15 | 0.10 | 74 | 1015.0 |
| 20260507102648 | 10 | 298 | 6.4 | 11.3 | 0.00 | 0.15 | 0.10 | 76 | 1015.0 |
| 20260507101649 | 11 | 323 | 3.2 | 6.4 | 0.00 | 0.15 | 0.10 | 75 | 1015.1 |
| 20260507100648 | 11 | 310 | 0.0 | 0.0 | 0.00 | 0.15 | 0.10 | 73 | 1015.1 |
| 20260507095648 | 10 | 310 | 0.0 | 4.8 | 0.00 | 0.15 | 0.10 | 75 | 1015.1 |
| 20260507094648 | 10 | 345 | 3.2 | 8.0 | 0.00 | 0.15 | 0.10 | 72 | 1015.0 |
| 20260507093648 | 10 | 340 | 0.0 | 3.2 | 0.00 | 0.15 | 0.10 | 79 | 1015.1 |
| 20260507092648 | 10 | 310 | 8.0 | 9.7 | 0.00 | 0.15 | 0.10 | 82 | 1015.0 |
| 20260507091648 | 10 | 333 | 4.8 | 9.7 | 0.00 | 0.15 | 0.10 | 78 | 1014.9 |
| 20260507090648 | 10 | 309 | 1.6 | 9.7 | 0.00 | 0.15 | 0.10 | 81 | 1014.9 |
| 20260507085811 | 10 | 312 | 0.0 | 4.8 | 0.00 | 0.15 | 0.10 | 77 | 1014.8 |
| 20260507085648 | 10 | 312 | 0.0 | 4.8 | 0.00 | 0.15 | 0.10 | 77 | 1014.8 |
| 20260507084648 | 10 | 296 | 4.8 | 4.8 | 0.00 | 0.15 | 0.10 | 78 | 1014.7 |
| 20260507083648 | 9 | 23 | 0.0 | 6.4 | 0.00 | 0.15 | 0.10 | 77 | 1014.7 |
| 20260507082648 | 8 | 326 | 0.0 | 8.0 | 0.00 | 0.15 | 0.10 | 82 | 1014.7 |
| 20260507081648 | 8 | 322 | 6.4 | 9.7 | 0.00 | 0.15 | 0.10 | 84 | 1014.6 |
| 20260507080648 | 8 | 298 | 3.2 | 9.7 | 0.00 | 0.15 | 0.10 | 84 | 1014.6 |
| 20260507075648 | 8 | 322 | 0.0 | 6.4 | 0.00 | 0.15 | 0.10 | 82 | 1014.4 |
| 20260507074648 | 8 | 330 | 0.0 | 4.8 | 0.00 | 0.15 | 0.10 | 81 | 1014.4 |
| 20260507073648 | 8 | 300 | 0.0 | 4.8 | 0.00 | 0.15 | 0.10 | 85 | 1014.4 |
| 20260507072648 | 8 | 122 | 0.0 | 8.0 | 0.00 | 0.15 | 0.10 | 87 | 1014.4 |
| 20260507071648 | 7 | 316 | 0.0 | 3.2 | 0.00 | 0.15 | 0.10 | 87 | 1014.4 |
| 20260507070648 | 7 | 319 | 0.0 | 4.8 | 0.00 | 0.15 | 0.10 | 83 | 1014.3 |
| 20260507065648 | 7 | 132 | 0.0 | 0.0 | 0.00 | 0.15 | 0.10 | 85 | 1014.2 |
| 20260507064649 | 7 | 132 | 0.0 | 4.8 | 0.00 | 0.15 | 0.10 | 82 | 1014.0 |
| 20260507063649 | 7 | 129 | 1.6 | 4.8 | 0.00 | 0.15 | 0.10 | 84 | 1014.0 |
| 20260507062649 | 7 | 54 | 0.0 | 1.6 | 0.00 | 0.15 | 0.10 | 88 | 1013.9 |
| 20260507061649 | 7 | 52 | 0.0 | 0.0 | 0.00 | 0.15 | 0.10 | 87 | 1013.9 |
| 20260507060649 | 7 | 161 | 0.0 | 0.0 | 0.00 | 0.15 | 0.10 | 85 | 1013.7 |
| 20260507055649 | 7 | 161 | 0.0 | 1.6 | 0.00 | 0.15 | 0.10 | 86 | 1013.7 |
| 20260507054649 | 6 | 160 | 3.2 | 4.8 | 0.00 | 0.15 | 0.10 | 86 | 1013.5 |
| 20260507053649 | 6 | 142 | 4.8 | 6.4 | 0.00 | 0.15 | 0.10 | 85 | 1013.5 |
| 20260507052649 | 6 | 323 | 0.0 | 1.6 | 0.00 | 0.15 | 0.10 | 88 | 1013.5 |
| 20260507051649 | 6 | 136 | 1.6 | 4.8 | 0.00 | 0.15 | 0.10 | 86 | 1013.3 |
| 20260507050649 | 6 | 127 | 3.2 | 6.4 | 0.00 | 0.15 | 0.10 | 87 | 1013.2 |
| 20260507045649 | 6 | 213 | 0.0 | 0.0 | 0.00 | 0.15 | 0.10 | 87 | 1013.0 |
| 20260507044649 | 5 | 171 | 0.0 | 0.0 | 0.00 | 0.15 | 0.10 | 87 | 1012.9 |
| 20260507043649 | 5 | 171 | 0.0 | 0.0 | 0.00 | 0.15 | 0.10 | 88 | 1012.8 |
| 20260507042649 | 5 | 203 | 0.0 | 0.0 | 0.00 | 0.15 | 0.10 | 89 | 1012.6 |
| 20260507041649 | 5 | 203 | 0.0 | 0.0 | 0.00 | 0.15 | 0.10 | 90 | 1012.6 |
| 20260507040649 | 5 | 247 | 0.0 | 3.2 | 0.00 | 0.15 | 0.10 | 91 | 1012.6 |
| 20260507035649 | 5 | 237 | 1.6 | 3.2 | 0.00 | 0.15 | 0.10 | 92 | 1012.5 |
| 20260507034649 | 5 | 136 | 0.0 | 0.0 | 0.00 | 0.15 | 0.10 | 94 | 1012.6 |
| 20260507033649 | 5 | 136 | 0.0 | 0.0 | 0.00 | 0.15 | 0.10 | 91 | 1012.5 |
| 20260507032649 | 5 | 136 | 0.0 | 0.0 | 0.00 | 0.15 | 0.10 | 87 | 1012.3 |
| 20260507031649 | 5 | 136 | 0.0 | 0.0 | 0.00 | 0.15 | 0.10 | 88 | 1012.3 |
| 20260507030649 | 5 | 210 | 1.6 | 3.2 | 0.00 | 0.15 | 0.10 | 88 | 1012.3 |
| 20260507025649 | 5 | 181 | 0.0 | 4.8 | 0.00 | 0.15 | 0.10 | 87 | 1012.3 |
| 20260507024649 | 5 | 158 | 3.2 | 4.8 | 0.00 | 0.15 | 0.10 | 86 | 1012.2 |
| 20260507023649 | 5 | 291 | 0.0 | 0.0 | 0.00 | 0.15 | 0.10 | 86 | 1012.2 |
| 20260507022649 | 5 | 156 | 3.2 | 6.4 | 0.00 | 0.15 | 0.10 | 87 | 1012.2 |
| 20260507021649 | 6 | 111 | 0.0 | 3.2 | 0.00 | 0.15 | 0.10 | 86 | 1012.1 |
| 20260507020649 | 5 | 282 | 0.0 | 1.6 | 0.00 | 0.15 | 0.10 | 87 | 1012.2 |
| 20260507015649 | 6 | 303 | 0.0 | 0.0 | 0.00 | 0.15 | 0.10 | 88 | 1012.1 |
| 20260507014649 | 5 | 303 | 0.0 | 0.0 | 0.00 | 0.15 | 0.10 | 89 | 1012.0 |
| 20260507013649 | 5 | 303 | 0.0 | 0.0 | 0.00 | 0.15 | 0.10 | 91 | 1011.9 |
| 20260507012649 | 5 | 316 | 1.6 | 6.4 | 0.00 | 0.15 | 0.10 | 93 | 1011.9 |
| 20260507011649 | 5 | 317 | 4.8 | 8.0 | 0.00 | 0.15 | 0.10 | 93 | 1011.9 |
| 20260507010649 | 6 | 310 | 6.4 | 6.4 | 0.00 | 0.15 | 0.10 | 86 | 1011.8 |
| 20260507005649 | 5 | 293 | 0.0 | 0.0 | 0.00 | 0.15 | 0.10 | 87 | 1011.8 |
| 20260507004649 | 6 | 293 | 0.0 | 1.6 | 0.00 | 0.15 | 0.10 | 86 | 1011.8 |
| 20260507003649 | 6 | 136 | 0.0 | 0.0 | 0.03 | 0.15 | 0.10 | 85 | 1011.9 |
| 20260507002649 | 6 | 142 | 0.0 | 1.6 | 0.05 | 0.15 | 0.10 | 84 | 1011.8 |
| 20260507001649 | 6 | 171 | 0.0 | 1.6 | 0.05 | 0.15 | 0.10 | 85 | 1011.6 |
| 20260507000649 | 6 | 130 | 0.0 | 0.0 | 0.08 | 0.15 | 0.10 | 85 | 1011.8 |
| 20260506235649 | 6 | 130 | 0.0 | 0.0 | 0.08 | 0.15 | 0.10 | 84 | 1011.6 |
| 20260506234849 | 6 | 130 | 0.0 | 0.0 | 0.10 | 0.15 | 0.10 | 85 | 1011.8 |
| 20260506234649 | 6 | 130 | 0.0 | 0.0 | 0.10 | 0.15 | 0.10 | 85 | 1011.8 |
| 20260506233649 | 6 | 196 | 1.6 | 12.9 | 0.08 | 0.13 | 0.08 | 85 | 1011.8 |
| 20260506232649 | 6 | 203 | 0.0 | 9.7 | 0.05 | 0.10 | 0.05 | 85 | 1011.9 |
| 20260506231649 | 6 | 126 | 3.2 | 9.7 | 0.05 | 0.10 | 0.05 | 85 | 1011.8 |
| 20260506230649 | 6 | 149 | 8.0 | 9.7 | 0.03 | 0.08 | 0.03 | 86 | 1011.8 |
| 20260506225649 | 7 | 146 | 3.2 | 9.7 | 0.03 | 0.08 | 0.03 | 87 | 1011.8 |
| 20260506224649 | 7 | 296 | 0.0 | 3.2 | 0.00 | 0.05 | 0.00 | 86 | 1011.8 |
| 20260506223649 | 7 | 307 | 0.0 | 3.2 | 0.00 | 0.05 | 0.05 | 83 | 1011.6 |
| 20260506222649 | 7 | 151 | 0.0 | 3.2 | 0.00 | 0.05 | 0.05 | 81 | 1011.6 |
| 20260506221650 | 7 | 160 | 3.2 | 4.8 | 0.00 | 0.05 | 0.05 | 79 | 1011.6 |
| 20260506220650 | 7 | 116 | 0.0 | 0.0 | 0.00 | 0.05 | 0.05 | 80 | 1011.6 |
| 20260506215650 | 7 | 116 | 0.0 | 0.0 | 0.00 | 0.05 | 0.05 | 80 | 1011.5 |
| 20260506214650 | 7 | 63 | 0.0 | 0.0 | 0.00 | 0.05 | 0.05 | 80 | 1011.4 |
| 20260506213650 | 7 | 87 | 1.6 | 1.6 | 0.00 | 0.05 | 0.05 | 80 | 1011.3 |
| 20260506212650 | 7 | 232 | 0.0 | 0.0 | 0.00 | 0.05 | 0.05 | 79 | 1011.4 |
| 20260506211650 | 8 | 232 | 0.0 | 3.2 | 0.00 | 0.05 | 0.05 | 79 | 1011.3 |
| 20260506210650 | 8 | 87 | 0.0 | 3.2 | 0.00 | 0.05 | 0.05 | 79 | 1011.3 |
| 20260506205650 | 8 | 158 | 3.2 | 4.8 | 0.00 | 0.05 | 0.05 | 80 | 1011.3 |
| 20260506204650 | 7 | 293 | 0.0 | 0.0 | 0.00 | 0.05 | 0.05 | 82 | 1011.2 |
| 20260506203650 | 7 | 293 | 0.0 | 1.6 | 0.00 | 0.05 | 0.05 | 83 | 1011.2 |
| 20260506202650 | 8 | 319 | 0.0 | 0.0 | 0.00 | 0.05 | 0.05 | 78 | 1011.2 |
| 20260506201650 | 8 | 150 | 0.0 | 0.0 | 0.00 | 0.05 | 0.05 | 75 | 1011.1 |
| 20260506200650 | 9 | 165 | 0.0 | 0.0 | 0.00 | 0.05 | 0.05 | 74 | 1010.9 |
| 20260506195650 | 9 | 165 | 0.0 | 0.0 | 0.00 | 0.05 | 0.05 | 73 | 1010.9 |
| 20260506194650 | 10 | 165 | 0.0 | 3.2 | 0.00 | 0.05 | 0.05 | 72 | 1010.9 |
| 20260506193650 | 10 | 45 | 0.0 | 0.0 | 0.00 | 0.05 | 0.05 | 71 | 1010.7 |
| 20260506192650 | 10 | 45 | 0.0 | 1.6 | 0.00 | 0.05 | 0.05 | 69 | 1010.6 |
| 20260506191650 | 10 | 80 | 0.0 | 1.6 | 0.00 | 0.05 | 0.05 | 69 | 1010.5 |
| 20260506190650 | 11 | 146 | 0.0 | 0.0 | 0.00 | 0.05 | 0.05 | 69 | 1010.5 |
| 20260506185650 | 11 | 146 | 0.0 | 0.0 | 0.00 | 0.05 | 0.05 | 65 | 1010.1 |
| 20260506184650 | 12 | 160 | 0.0 | 4.8 | 0.00 | 0.05 | 0.05 | 62 | 1010.0 |
| 20260506183650 | 14 | 160 | 0.0 | 1.6 | 0.00 | 0.05 | 0.05 | 58 | 1009.9 |
| 20260506182650 | 17 | 147 | 0.0 | 1.6 | 0.00 | 0.05 | 0.05 | 51 | 1009.8 |
| 20260506181650 | 22 | 137 | 3.2 | 4.8 | 0.00 | 0.05 | 0.05 | 44 | 1009.7 |
| 20260506180650 | 23 | 151 | 0.0 | 0.0 | 0.00 | 0.05 | 0.05 | 44 | 1009.7 |
| 20260506175650 | 22 | 105 | 0.0 | 6.4 | 0.00 | 0.05 | 0.05 | 49 | 1009.5 |
| 20260506174650 | 18 | 306 | 0.0 | 3.2 | 0.00 | 0.05 | 0.05 | 59 | 1009.4 |
| 20260506173650 | 11 | 282 | 3.2 | 14.5 | 0.00 | 0.05 | 0.05 | 81 | 1009.4 |
| 20260506172650 | 8 | 267 | 0.0 | 6.4 | 0.00 | 0.05 | 0.05 | 86 | 1009.3 |
| 20260506171650 | 8 | 320 | 8.0 | 8.0 | 0.00 | 0.05 | 0.05 | 84 | 1009.3 |
| 20260506170650 | 10 | 336 | 4.8 | 9.7 | 0.00 | 0.05 | 0.05 | 77 | 1009.1 |
| 20260506165650 | 11 | 4 | 1.6 | 6.4 | 0.00 | 0.05 | 0.05 | 67 | 1009.1 |
| 20260506164650 | 11 | 286 | 0.0 | 9.7 | 0.00 | 0.05 | 0.05 | 71 | 1009.0 |
| 20260506163650 | 15 | 324 | 11.3 | 14.5 | 0.00 | 0.05 | 0.05 | 46 | 1008.7 |
| 20260506162650 | 21 | 167 | 0.0 | 4.8 | 0.00 | 0.05 | 0.05 | 44 | 1008.7 |
| 20260506161650 | 17 | 188 | 0.0 | 8.0 | 0.00 | 0.05 | 0.05 | 76 | 1008.7 |
| 20260506160650 | 10 | 133 | 4.8 | 11.3 | 0.03 | 0.05 | 0.05 | 81 | 1008.6 |